User: anonymous   Login
Location: Walnut Point State Park
(39.6958°N, 88.0345°W)
Time: 02:25:04
(UTC-05:00)
Language:

Iridium 75 - Orbit

View from above orbital plane
View from above orbital plane
View from above satellite
View from above satellite

Ground track
Ground track

The orbit data is extracted from the following two-line orbital elements,

1 25346U 98032E   17262.87685902 +.00000172 +00000-0 +54444-4 0  9990
2 25346 086.4022 184.5582 0002248 082.3722 277.7729 14.34223145012943
Epoch (UTC): 19 September 2017 21:02:40
Eccentricity: 0.0002248
inclination: 86.4022°
perigee height: 776 km
apogee height: 779 km
right ascension of ascending node: 184.5582°
argument of perigee: 82.3722°
revolutions per day: 14.34223145
mean anomaly at epoch: 277.7729°
orbit number at epoch: 1294

The dashed part of the orbit path shows where the satellite is in the earth's shadow,  

DLR